Weather History for Hazlehurst, GA

Change the Weather History Date:

Monday, January 21, 2013

  Actual Average Record
Temperature  
Mean Temperature 49 °F -  
Max Temperature 65 °F 52 °F 72 °F (2014)
Min Temperature 35 °F 26 °F 35 °F (2013)
Degree Days  
Heating Degree Days 16    
Moisture  
Dew Point 40 °F    
Average Humidity 74    
Maximum Humidity 100    
Minimum Humidity 42    
Precipitation  
Precipitation 0.00 in - - ()
Sea Level Pressure  
Sea Level Pressure 30.10 in    
Wind  
Wind Speed 1 mph (WNW)    
Max Wind Speed 8 mph    
Max Gust Speed -    
Visibility 9 miles    
Events      
Averages and records for this station are not official NWS values.
T = Trace of Precipitation, MM = Missing Value Source: NWS Daily Summary

Daily Weather History Graph

Daily Weather History Graph

Search for Another Location

Airport:

Trip Planner

Search our weather history database for the weather conditions in past years. The results will help you decide how hot, cold, wet, or windy it might be!

Date:

Astronomy

Jan. 21, 2013 Rise Set
Actual Time 7:29 AM EST 5:54 PM EST
Civil Twilight 7:03 AM EST 6:21 PM EST
Nautical Twilight 6:33 AM EST 6:50 PM EST
Astronomical Twilight 6:04 AM EST 7:19 PM EST
Moon 1:35 PM EST (1/21) 2:56 AM EST (1/21)
Length of Visible Light 11h 17m
Length of Day
10h 25m
Waxing Gibbous, 75% of the Moon is Illuminated
Jan 21
Waxing Gibbous
Jan 26
Full
Feb 3
Last Quarter
Feb 10
New
Feb 17
First Quarter

Hourly Weather History & Observations

Time (EST) Temp. Windchill Dew Point Humidity Pressure Visibility Wind Dir Wind Speed Gust Speed Precip Events Conditions
12:15 AM 41.9 °F - 41.0 °F 97% 30.12 in 10.0 mi Calm Calm - N/A   Clear
12:35 AM 41.7 °F - 40.8 °F 97% 30.11 in 10.0 mi Calm Calm - N/A   Clear
1:15 AM 42.1 °F - 40.8 °F 95% 30.10 in 10.0 mi Calm Calm - N/A   Clear
1:35 AM 41.4 °F - 40.6 °F 97% 30.10 in 10.0 mi Calm Calm - N/A   Clear
1:55 AM 40.8 °F - 40.6 °F 99% 30.10 in 10.0 mi Calm Calm - N/A   Clear
2:15 AM 39.7 °F - 39.7 °F 100% 30.10 in 10.0 mi Calm Calm - N/A   Clear
2:35 AM 39.4 °F 37.2 °F 39.6 °F 100% 30.10 in 10.0 mi WSW 3.5 mph - N/A   Clear
2:55 AM 41.2 °F - 40.6 °F 98% 30.10 in 10.0 mi Calm Calm - N/A   Clear
3:15 AM 40.8 °F - 39.9 °F 97% 30.09 in 10.0 mi Calm Calm - N/A   Clear
3:35 AM 40.3 °F - 40.5 °F 100% 30.09 in 10.0 mi Calm Calm - N/A   Clear
3:55 AM - - - N/A% 30.09 in 10.0 mi Calm Calm - N/A   Clear
4:15 AM 39.4 °F - 39.6 °F 100% 30.08 in 10.0 mi Calm Calm - N/A   Clear
4:35 AM 39.6 °F - 39.7 °F 100% 30.08 in 10.0 mi Calm Calm - N/A   Clear
4:55 AM 40.1 °F - 40.3 °F 100% 30.08 in 7.0 mi Calm Calm - N/A   Clear
5:15 AM 39.4 °F - 39.6 °F 100% 30.07 in 7.0 mi Calm Calm - N/A   Clear
5:35 AM 39.2 °F - 39.4 °F 100% 30.07 in 7.0 mi Calm Calm - N/A   Clear
5:55 AM 39.0 °F - 39.2 °F 100% 30.08 in 10.0 mi Calm Calm - N/A   Clear
6:15 AM - - - N/A% 30.08 in 7.0 mi Calm Calm - N/A   Clear
6:35 AM 37.4 °F - 37.6 °F 100% 30.08 in 7.0 mi Calm Calm - N/A   Clear
7:15 AM 35.8 °F - 36.0 °F 100% 30.10 in 10.0 mi Calm Calm - N/A   Clear
7:35 AM 35.2 °F - 35.4 °F 100% 30.11 in 2.5 mi Calm Calm - N/A   Clear
7:55 AM 35.1 °F - 35.2 °F 100% 30.12 in 2.5 mi Calm Calm - N/A   Clear
8:15 AM 36.0 °F - 36.1 °F 100% 30.13 in 3.0 mi Calm Calm - N/A   Clear
8:35 AM 38.8 °F - 38.5 °F 99% 30.13 in 7.0 mi Calm Calm - N/A   Clear
8:55 AM 43.2 °F 41.5 °F 38.7 °F 84% 30.14 in 10.0 mi West 3.5 mph - N/A   Clear
9:15 AM 44.4 °F - 39.2 °F 82% 30.15 in 10.0 mi Calm Calm - N/A   Clear
9:35 AM 46.4 °F - 40.1 °F 79% 30.15 in 10.0 mi Calm Calm - N/A   Clear
9:55 AM 49.1 °F - 40.5 °F 72% 30.15 in 10.0 mi Calm Calm - N/A   Clear
10:15 AM 51.4 °F - 41.2 °F 68% 30.16 in 10.0 mi Calm Calm - N/A   Clear
10:35 AM 53.2 °F - 41.7 °F 65% 30.17 in 10.0 mi Calm Calm - N/A   Clear
10:55 AM 54.5 °F - 41.5 °F 62% 30.17 in 10.0 mi Calm Calm - N/A   Clear
11:15 AM 56.8 °F - 41.9 °F 57% 30.16 in 10.0 mi Calm Calm - N/A   Clear
11:35 AM 59.5 °F - 41.2 °F 51% 30.14 in 10.0 mi NW 3.5 mph - N/A   Clear
11:55 AM 60.3 °F - 41.5 °F 50% 30.13 in 10.0 mi NW 5.8 mph - N/A   Clear
12:15 PM 60.8 °F - 41.7 °F 49% 30.12 in 10.0 mi Calm Calm - N/A   Clear
12:35 PM 61.5 °F - 42.1 °F 49% 30.10 in 10.0 mi Calm Calm - N/A   Clear
12:55 PM 62.6 °F - 42.3 °F 47% 30.09 in 10.0 mi WNW 4.6 mph - N/A   Clear
1:15 PM 62.8 °F - 41.5 °F 46% 30.08 in 10.0 mi West 4.6 mph - N/A   Clear
1:35 PM 63.0 °F - 41.0 °F 45% 30.06 in 10.0 mi WNW 3.5 mph - N/A   Clear
1:55 PM 62.6 °F - 41.0 °F 45% 30.06 in 10.0 mi West 5.8 mph - N/A   Clear
2:15 PM 62.6 °F - 40.5 °F 44% 30.05 in 10.0 mi WNW 4.6 mph - N/A   Clear
2:35 PM 63.0 °F - 40.3 °F 43% 30.05 in 10.0 mi NW 8.1 mph - N/A   Clear
2:55 PM 63.1 °F - 40.3 °F 43% 30.05 in 10.0 mi West 5.8 mph - N/A   Clear
3:15 PM 63.1 °F - 39.4 °F 42% 30.04 in 10.0 mi West 4.6 mph - N/A   Clear
3:35 PM 63.0 °F - 39.6 °F 42% 30.04 in 10.0 mi WNW 4.6 mph - N/A   Clear
3:55 PM 62.4 °F - 39.0 °F 42% 30.05 in 10.0 mi West 3.5 mph - N/A   Clear
4:15 PM 61.7 °F - 38.8 °F 43% 30.05 in 10.0 mi Calm Calm - N/A   Clear
4:35 PM 61.7 °F - 39.2 °F 43% 30.05 in 10.0 mi West 3.5 mph - N/A   Clear
4:55 PM 61.0 °F - 39.2 °F 45% 30.05 in 10.0 mi Calm Calm - N/A   Clear
5:15 PM 60.1 °F - 39.6 °F 47% 30.06 in 10.0 mi West 3.5 mph - N/A   Clear
5:35 PM 58.8 °F - 39.9 °F 50% 30.06 in 10.0 mi Calm Calm - N/A   Clear
5:55 PM 57.0 °F - 40.5 °F 54% 30.06 in 10.0 mi Calm Calm - N/A   Clear
6:15 PM 54.7 °F - 41.4 °F 61% 30.07 in 10.0 mi Calm Calm - N/A   Clear
6:35 PM 52.9 °F - 41.4 °F 65% 30.07 in 10.0 mi Calm Calm - N/A   Clear
6:55 PM 52.3 °F - 41.4 °F 66% 30.08 in 10.0 mi Calm Calm - N/A   Clear
7:15 PM 52.2 °F - 43.2 °F 71% 30.08 in 10.0 mi Calm Calm - N/A   Clear
7:55 PM 49.1 °F - 44.1 °F 83% 30.08 in 10.0 mi Calm Calm - N/A   Clear
8:15 PM 48.2 °F - 42.4 °F 80% 30.09 in 10.0 mi Calm Calm - N/A   Clear
8:35 PM 48.2 °F - 43.7 °F 84% 30.10 in 10.0 mi WNW 3.5 mph - N/A   Clear
8:55 PM 49.8 °F - 42.4 °F 76% 30.11 in 10.0 mi WNW 3.5 mph - N/A   Clear
9:15 PM 50.4 °F - 41.9 °F 73% 30.12 in 10.0 mi Calm Calm - N/A   Clear
9:35 PM 46.9 °F - 43.2 °F 87% 30.12 in 10.0 mi Calm Calm - N/A   Clear
9:55 PM 46.4 °F - 43.5 °F 90% 30.12 in 10.0 mi Calm Calm - N/A   Clear
10:15 PM 45.9 °F - 43.7 °F 92% 30.13 in 10.0 mi Calm Calm - N/A   Clear
10:35 PM 45.9 °F 44.6 °F 42.8 °F 89% 30.13 in 10.0 mi NW 3.5 mph - N/A   Clear
10:55 PM 46.0 °F 44.8 °F 42.1 °F 86% 30.14 in 10.0 mi NW 3.5 mph - N/A   Clear
11:15 PM 48.0 °F - 39.7 °F 73% 30.14 in 10.0 mi NW 4.6 mph - N/A   Clear
11:35 PM 48.7 °F - 38.7 °F 68% 30.14 in 10.0 mi NNW 5.8 mph - N/A   Clear
11:55 PM 48.0 °F - 38.5 °F 70% 30.14 in 10.0 mi NW 3.5 mph - N/A   Clear